Regional Weather Roundup
Issued by NWS

Home | Current Version | Previous Version | Graphics & Text | Print | Product List | Glossary Off
Versions: 1 2 3 4 5 6 7 8 9 10 11 12 13 14 15 16 17 18 19 20 21 22 23 24 25 26 27 28 29 30 31 32 33 34 35 36 37 38 39 40 41 42 43 44 45 46 47 48 49 50

000
ASUS43 KLSX 300010
RWRMO

WEATHER SUMMARY FOR MISSOURI
NATIONAL WEATHER SERVICE SPRINGFIELD MO
700 PM CDT SAT AUG 29 2015

NOTE: "FAIR" INDICATES FEW OR NO CLOUDS BELOW 12,000 FEET WITH NO
       SIGNIFICANT WEATHER AND/OR OBSTRUCTIONS TO VISIBILITY.
       CURRENT SKY AND/OR WEATHER CONDITIONS ARE NOT AVAILABLE FOR
       CHILLICOTHE AND FARMINGTON.

MOZ001>031-035>038-043-044-053-054-300100-
...NORTHERN AND WESTERN MISSOURI...

CITY           SKY/WX    TMP DP  RH WIND       PRES   REMARKS
KANSAS CTY INT CLOUDY    74  67  78 N9        30.01S
6HR MIN TEMP:  71; 6HR MAX TEMP:  78;

KANSAS C DTWN  CLOUDY    76  68  76 N6        30.00R
6HR MIN TEMP:  73; 6HR MAX TEMP:  81;

LEE`S SUMMIT   CLOUDY    76  69  79 N6        30.01R
6HR MIN TEMP:  74; 6HR MAX TEMP:  79;

ST JOSEPH      MOCLDY    71  65  81 N9        30.02F
6HR MIN TEMP:  71; 6HR MAX TEMP:  76;

CHILLICOTHE      N/A     79  70  74 N5        30.01R
6HR MIN TEMP:  76; 6HR MAX TEMP:  84;

KIRKSVILLE     CLOUDY    75  69  81 N7        30.01S
6HR MIN TEMP:  75; 6HR MAX TEMP:  79;


$$
MOZ066>068-077>081-088>096-101>105-300100-
...SOUTHWEST MISSOURI...

CITY           SKY/WX    TMP DP  RH WIND       PRES   REMARKS
SPRINGFIELD    PTCLDY    78  68  71 SE7       29.98S
6HR MIN TEMP:  78; 6HR MAX TEMP:  83;

JOPLIN         MOCLDY    79  71  76 NW7       29.98R
6HR MIN TEMP:  79; 6HR MAX TEMP:  83;


$$
MOZ032>034-039>042-045>050-055>058-069>072-300100-
...CENTRAL MISSOURI...

CITY           SKY/WX    TMP DP  RH WIND       PRES   REMARKS
COLUMBIA       CLOUDY    78  70  76 NW3       29.99S
6HR MIN TEMP:  78; 6HR MAX TEMP:  82;

JEFFERSON CITY CLOUDY    79  68  69 NW3       29.97R
6HR MIN TEMP:  79; 6HR MAX TEMP:  84;

ROLLA          CLOUDY    77  69  76 S9        29.99S
6HR MIN TEMP:  77; 6HR MAX TEMP:  83; 6HR PCP: TRACE;

SEDALIA        CLOUDY    79  69  71 CALM      30.00S
6HR MIN TEMP:  78; 6HR MAX TEMP:  81;

WHITEMAN AFB   LGT RAIN  76  71  84 N6        29.97S
WARRENSBURG    CLOUDY    77  70  78 NW3       29.99S
OSAGE BEACH    CLOUDY    79  70  73 CALM      29.99S

$$
MOZ051-052-059>065-300100-
...EAST CENTRAL MISSOURI...

CITY           SKY/WX    TMP DP  RH WIND       PRES   REMARKS
ST LOUIS INTL  MOCLDY    81  66  60 S7        29.99S
6HR MIN TEMP:  81; 6HR MAX TEMP:  84;

SPIRIT OF STL  CLEAR     80  71  74 CALM      29.97S
6HR MIN TEMP:  79; 6HR MAX TEMP:  84;

ST CHARLES     PTCLDY    79  70  74 S5        29.97S
6HR MIN TEMP:  79; 6HR MAX TEMP:  83;


$$
MOZ072>076-082>087-097>100-106>115-300100-
...SOUTH CENTRAL AND SOUTHEAST MISSOURI...

CITY           SKY/WX    TMP DP  RH WIND       PRES   REMARKS
CAPE GIRARDEAU CLOUDY    78  69  73 CALM      29.99F
6HR MIN TEMP:  78; 6HR MAX TEMP:  84;

FARMINGTON     CLOUDY    75  70  83 S7        30.04S
6HR MIN TEMP:  73; 6HR MAX TEMP:  79;

POPLAR BLUFF   MOCLDY    76  70  82 CALM      29.99S
6HR MIN TEMP:  76; 6HR MAX TEMP:  83;

WEST PLAINS    PTCLDY    74  65  73 SE6       30.03S
6HR MIN TEMP:  69; 6HR MAX TEMP:  77;


$$



USA.gov is the U.S. government's official web portal to all federal, state and local government web resources and services.